This demonstration page uses our WeatherBlox Daily Observations layout. Learn more.

Left ArrowRight Arrow

38.80484, -77.04692

Hourly Observations for August 22, 2021

Temp ( °F °C ) Dew Point ( °F °C ) Humidity (%) Winds ( mph kmh ) Pressure ( in mb ) Visibility ( mi km ) Precip ( " mm )
12:52 am 00:52 Partly Cloudy 77 25 71 21.7 82 82 SW 3 6 29.89 1012 10 16 N/A
1:52 am 01:52 Mostly Cloudy 76 24.4 71 21.7 85 85 S 3 6 29.88 1012 10 16 N/A
2:52 am 02:52 Partly Cloudy 76 24.4 71 21.7 85 85 N N/A 29.87 1012 10 16 N/A
3:52 am 03:52 Mostly Cloudy 75 23.9 72 22.2 90 90 S 3 6 29.88 1012 10 16 N/A
4:13 am 04:13 Cloudy 75 23.9 71 21.7 88 88 WSW 3 6 29.88 1012 10 16 N/A
4:52 am 04:52 Cloudy 75 23.9 70 21.1 84 84 WSW 7 11 29.88 1012 10 16 N/A
5:52 am 05:52 Partly Cloudy 75 23.9 70 21.1 84 84 N N/A 29.88 1012 10 16 N/A
6:52 am 06:52 Mostly Sunny 74 23.3 69 20.6 85 85 N 6 9 29.89 1012 10 16 N/A
7:52 am 07:52 Mostly Sunny 76 24.4 70 21.1 82 82 N N/A 29.91 1013 10 16 N/A
8:52 am 08:52 Mostly Sunny 78 25.6 70 21.1 76 76 WNW 3 6 29.91 1013 10 16 N/A
9:52 am 09:52 Partly Cloudy 83 28.3 69 20.6 63 63 NW 6 9 29.91 1013 10 16 N/A
10:52 am 10:52 Mostly Cloudy 82 27.8 70 21.1 67 67 NW 9 15 29.91 1013 10 16 N/A
11:52 am 11:52 Mostly Cloudy 83 28.3 70 21.1 65 65 N 8 13 29.91 1013 10 16 N/A
12:52 pm 12:52 Mostly Cloudy 82 27.8 70 21.1 67 67 NE 7 11 29.91 1013 10 16 N/A
1:52 pm 13:52 Cloudy 83 28.3 71 21.7 67 67 NE 7 11 29.89 1012 10 16 N/A
2:52 pm 14:52 Cloudy 83 28.3 70 21.1 65 65 NE 6 9 29.89 1012 10 16 N/A
3:52 pm 15:52 Mostly Cloudy 83 28.3 71 21.7 67 67 ENE 5 7 29.88 1012 10 16 N/A
4:33 pm 16:33 Cloudy 82 27.8 71 21.7 69 69 ENE 7 11 29.88 1012 10 16 N/A
4:52 pm 16:52 Cloudy with Nearby Thunderstorms 82 27.8 71 21.7 69 69 E 3 6 29.89 1012 10 16 N/A
5:32 pm 17:32 Cloudy 83 28.3 69 20.6 63 63 N N/A 29.89 1012 10 16 N/A
5:52 pm 17:52 Cloudy 81 27.2 71 21.7 72 72 SW 8 13 29.88 1012 10 16 N/A
6:52 pm 18:52 Cloudy 79 26.1 62 16.7 56 56 S 5 7 29.89 1012 10 16 N/A
7:52 pm 19:52 Cloudy 78 25.6 65 18.3 64 64 S 6 9 29.89 1012 10 16 N/A
8:52 pm 20:52 Mostly Cloudy 77 25 63 17.2 62 62 SW 6 9 29.89 1012 10 16 N/A
9:52 pm 21:52 Mostly Cloudy 75 23.9 66 18.9 74 74 SW 3 6 29.88 1012 10 16 N/A
10:52 pm 22:52 Cloudy 75 23.9 67 19.4 76 76 S 5 7 29.87 1012 10 16 N/A
11:52 pm 23:52 Cloudy 77 25 67 19.4 71 71 SSW 6 9 29.88 1012 10 16 N/A

Powered by AerisWeather